Temperature
17 16 16 16 16 16 15 14 14 13 13 13 13 13 13 13 12 12 13 12 13 13 14 15 15 15 14 14 15 15 15 15 16 15 14 15 15 14 14 14 14 13 13
18 17 17 16 16 16 15 14 14 14 13 13 13 13 13 13 12 12 13 12 12 13 13 13 14 14 14 14 15 15 15 15 15 14 14 15 15 14 14 14 14 13 12
19 18 16 16 16 16 15 14 15 14 13 13 13 13 13 12 12 13 13 12 12 12 12 13 13 13 14 14 15 15 15 15 14 14 13 15 14 14 14 14 13 13 12
18 18 17 16 16 16 15 15 14 14 14 14 14 13 13 13 13 13 13 13 13 13 13 13 14 13 15 15 15 15 15 14 14 14 13 14 13 13 13 13 13 12 12
18 17 16 16 15 15 15 15 14 13 14 14 14 14 14 14 14 14 14 14 14 14 14 14 14 13 14 14 14 15 14 14 14 14 14 13 13 14 14 13 13 13 12
18 17 16 16 16 15 15 15 14 14 13 13 14 14 14 14 14 15 14 14 14 14 14 14 13 14 14 14 14 14 14 14 14 14 14 13 13 14 14 14 13 12 12
16 16 15 16 16 16 16 16 15 15 14 13 13 14 13 13 14 14 14 14 13 13 14 14 14 14 14 14 14 15 14 14 14 14 13 14 14 14 13 13 13 13 13
16 16 15 15 14 15 16 16 15 14 14 15 14 14 14 13 13 14 14 13 13 13 13 14 14 13 13 14 14 14 14 14 14 14 14 13 13 13 13 13 13 13 12
16 15 15 14 14 14 15 16 15 14 15 15 15 14 14 13 13 13 13 13 13 13 13 13 13 13 14 14 14 14 14 14 14 14 14 13 13 13 12 12 12 12 12
14 14 14 15 14 13 13 13 15 15 15 14 14 14 14 13 13 13 13 13 13 13 13 13 13 13 14 13 13 13 13 13 14 14 14 14 13 13 12 12 12 12 13
13 12 12 13 13 13 13 13 14 14 13 13 13 14 13 13 13 13 13 12 12 13 13 13 14 14 13 13 13 12 13 13 14 13 13 13 13 12 12 12 12 12 13
11 11 11 12 12 12 12 12 12 12 12 12 12 12 12 12 12 12 13 12 12 12 13 13 13 13 13 13 13 12 12 12 12 12 12 12 12 12 12 12 12 12 12
11 11 10 10 11 11 11 10 10 11 11 11 11 11 11 12 12 12 12 12 12 12 12 12 13 13 12 12 12 12 12 12 12 11 12 12 12 12 11 11 11 12 12
11 11 10 10 10 10 9 10 10 10 11 11 11 11 11 11 11 12 12 12 12 12 12 12 12 12 12 12 12 12 11 11 11 11 11 11 12 12 12 12 11 11 11
11 11 11 11 10 10 10 10 10 10 10 11 11 11 11 11 11 12 12 12 12 11 11 11 12 11 11 11 12 12 11 11 11 11 11 11 11 11 11 11 11 11 11
12 11 10 10 10 11 10 10 11 11 11 11 11 11 11 11 11 12 12 12 12 12 12 11 11 11 11 10 11 11 11 11 10 10 10 10 10 10 10 10 10 11 11
11 11 11 10 10 10 10 10 10 10 10 10 10 10 11 11 12 12 12 12 12 12 11 11 10 10 10 10 10 11 10 10 10 10 10 10 10 10 10 10 10 10 10
11 11 10 10 10 10 10 10 10 10 10 10 10 10 10 11 12 12 11 11 10 10 10 10 10 10 10 10 10 10 10 10 10 9 10 10 10 10 10 10 10 10 10
11 11 10 10 10 10 10 10 10 10 10 9 9 9 9 10 10 10 9 10 10 9 9 9 9 9 9 9 9 9 9 9 9 9 10 10 10 10 10 10 10 10 9
11 11 11 10 10 10 10 10 10 10 10 9 9 9 9 9 9 9 9 9 9 9 9 9 9 9 9 9 9 9 9 9 9 9 9 9 9 9 9 9 9 9 9
11 11 11 10 10 11 11 11 10 10 10 10 9 9 9 9 9 9 9 9 9 9 9 9 9 9 9 9 9 8 9 9 9 9 9 9 9 9 9 9 9 9 9
11 11 10 10 10 10 10 10 10 10 9 9 9 9 9 9 9 10 10 10 10 9 9 9 9 9 9 9 9 9 8 8 9 9 9 9 9 8 9 9 9 9 9
11 10 10 10 10 10 10 10 10 10 10 9 9 9 9 9 10 10 9 10 10 9 9 9 9 9 9 9 9 8 8 8 9 8 8 8 8 8 8 9 9 8 8
11 10 10 10 10 10 10 10 10 10 10 10 9 9 9 9 9 9 9 9 9 9 9 9 9 9 9 9 8 8 8 9 8 8 8 8 8 8 8 8 8 8 7
11 10 10 10 10 10 10 10 10 10 10 10 10 10 9 9 9 9 9 9 9 8 8 8 8 8 8 8 8 8 9 9 9 9 8 8 8 8 8 8 8 7 7
10 10 11 11 10 10 10 10 9 9 9 9 9 9 9 8 8 8 8 8 8 8 8 8 8 8 8 8 8 8 8 8 9 8 9 9 8 8 8 8 7 7 6
Wind_Speed
9 7 6 5 5 5 5 5 6 5 6 8 8 8 9 9 9 7 8 11 7 4 1 3 8 10 9 10 11 11 11 10 10 4 3 5 10 9 8 7 6 5 6
9 8 7 6 6 6 6 6 7 7 6 6 5 6 7 7 8 9 8 8 7 4 3 7 10 8 10 10 10 12 12 11 10 9 5 6 9 11 10 8 7 5 5
10 9 8 8 7 6 6 6 7 8 8 7 7 8 9 9 10 10 9 9 9 9 9 6 10 12 11 11 11 12 11 11 10 10 6 6 8 10 11 9 8 6 6
10 10 9 8 8 8 7 8 8 9 8 7 8 8 10 10 10 10 10 11 13 14 12 11 11 14 13 12 11 12 12 12 11 10 8 8 7 8 10 10 8 8 7
10 10 9 8 8 9 9 9 10 9 9 8 7 7 8 8 9 11 12 13 14 13 14 13 12 15 10 7 9 10 10 10 10 10 9 8 7 7 11 11 10 9 9
11 10 9 8 8 10 11 12 11 11 11 10 9 9 8 7 7 6 6 8 9 11 12 11 10 10 10 8 11 13 10 10 11 11 10 11 13 12 12 11 10 8 7
9 9 8 9 10 11 12 13 13 12 11 11 12 11 11 8 8 9 9 8 10 11 12 12 11 8 9 10 13 12 12 13 13 13 13 15 14 13 13 13 12 12 8
5 4 6 8 10 11 12 13 14 13 12 13 13 13 12 9 8 8 8 12 11 11 12 12 10 11 12 11 10 9 11 12 12 13 14 11 7 8 13 14 13 11 7
4 1 2 5 8 10 11 13 13 13 12 13 12 11 10 10 10 9 9 11 11 11 11 11 11 11 8 7 10 9 9 9 5 6 4 1 6 9 11 11 10 10 9
7 6 5 3 2 6 9 10 10 11 11 10 9 8 9 10 9 9 11 10 10 8 7 8 7 6 5 7 8 7 7 5 5 4 5 5 7 11 13 14 12 11 10
7 6 6 6 5 3 2 3 4 6 6 6 6 7 8 9 7 6 7 9 8 6 5 6 6 6 5 6 6 5 3 1 3 4 5 6 7 8 9 11 9 9 10
5 6 6 6 5 3 2 2 3 5 6 6 5 5 5 5 2 3 5 7 5 5 5 5 6 7 6 5 4 1 2 2 3 4 5 5 5 6 7 7 8 7 9
5 5 4 4 4 3 3 5 6 5 5 4 4 4 3 3 2 2 5 7 6 3 5 8 9 8 7 6 4 4 5 4 2 3 4 4 4 5 5 5 8 9 9
5 5 4 4 4 5 3 3 5 4 3 2 2 3 4 3 4 5 7 8 8 7 10 10 9 7 5 5 6 6 5 4 5 5 5 5 4 4 5 6 7 8 9
4 4 5 5 5 5 4 3 3 4 5 3 2 2 1 3 3 4 7 9 10 9 9 8 7 6 6 5 4 3 3 4 5 5 5 5 5 5 5 6 5 6 6
2 4 3 3 4 5 4 3 8 8 8 7 7 6 3 2 4 4 2 3 9 10 7 5 4 4 3 3 4 4 4 4 5 5 5 5 5 6 6 5 6 7 9
2 2 1 1 2 3 2 2 2 3 5 9 10 9 7 5 1 7 7 8 5 3 4 4 3 3 3 3 3 4 4 4 5 5 5 5 6 6 7 7 7 8 9
2 1 0 0 2 2 2 2 1 2 2 4 7 8 9 9 10 13 11 7 4 2 2 1 1 2 3 4 4 5 4 3 4 5 5 5 6 6 6 7 7 9 9
2 1 0 1 1 2 2 1 2 4 3 2 3 4 6 8 8 5 2 3 4 3 2 2 2 3 3 4 4 4 5 5 6 5 6 6 6 6 6 6 8 10 10
2 2 1 1 2 1 0 1 4 4 3 3 4 4 4 2 1 0 1 1 2 3 3 3 3 3 4 4 5 5 6 6 6 6 6 6 6 7 7 7 7 8 8
4 4 3 2 1 1 1 2 5 3 2 4 6 6 4 1 2 2 2 1 1 1 2 1 2 2 4 6 6 6 6 6 6 6 6 6 6 6 6 6 6 7 6
5 5 5 3 3 2 1 2 4 4 3 4 5 3 1 2 3 2 2 1 1 2 2 2 3 2 3 4 6 5 5 6 6 6 6 6 6 6 6 6 5 5 4
6 5 5 4 4 3 2 2 3 3 4 5 4 3 2 3 3 3 3 2 1 1 2 2 3 2 2 3 3 4 5 5 5 5 5 5 5 6 6 5 6 6 5
6 5 4 4 4 4 3 4 5 3 3 4 4 5 4 3 3 4 4 2 2 3 2 3 4 5 4 3 4 5 6 6 6 5 5 5 5 4 4 5 5 6 5
7 6 4 3 5 5 4 4 5 4 3 3 4 3 4 4 4 4 3 4 5 5 5 5 5 6 7 8 8 9 10 8 6 6 4 3 4 3 2 2 3 4 4
8 7 5 4 4 5 4 4 5 4 4 5 4 3 4 3 3 4 4 5 5 6 6 6 7 8 9 9 11 13 13 10 4 3 3 2 2 2 2 3 4 5 5
Wind_Direction
192 189 195 216 227 220 221 203 199 193 188 197 216 209 203 191 181 162 157 151 155 138 80 273 243 233 223 218 218 225 232 236 242 194 155 168 181 182 161 182 164 199 154
191 187 197 207 217 222 214 205 194 194 199 212 216 206 201 181 173 168 165 157 163 164 232 266 265 235 231 224 221 223 227 228 226 227 181 184 194 190 182 186 191 202 202
184 189 196 204 213 222 221 205 196 197 203 211 200 201 211 195 183 183 187 172 182 203 217 245 274 259 229 230 229 228 230 234 221 229 184 183 201 190 188 199 198 202 214
186 194 202 208 210 216 213 210 208 205 209 211 212 207 213 212 207 198 194 210 205 209 207 212 230 262 250 238 239 236 227 228 226 224 190 180 194 193 195 203 207 210 214
193 201 204 211 211 214 206 206 210 213 215 219 223 213 214 209 208 207 202 218 222 214 211 205 200 226 253 271 269 255 236 229 227 226 210 192 191 189 202 206 211 205 216
202 207 201 205 208 217 214 209 212 214 225 223 233 227 221 213 178 220 225 220 240 240 234 226 216 222 233 238 247 257 263 246 229 225 222 214 209 209 205 203 203 199 209
229 205 200 207 210 215 219 218 216 215 217 215 220 228 235 223 173 206 223 235 241 247 247 234 212 207 228 236 229 233 248 243 240 237 232 233 233 211 194 198 203 206 211
235 215 210 219 220 215 218 221 217 210 205 208 213 214 223 222 179 206 219 243 245 246 248 246 233 220 214 223 236 236 238 231 230 238 245 250 250 194 193 205 205 204 204
74 56 231 222 221 216 217 222 220 214 208 207 214 216 217 222 184 199 217 243 245 246 242 234 225 226 206 209 238 241 248 242 221 233 256 129 158 185 204 201 200 195 200
45 46 47 35 282 246 234 227 221 218 218 216 213 214 221 232 192 198 218 236 237 235 230 224 208 229 174 203 238 253 264 260 233 200 178 183 192 206 215 205 200 202 208
31 38 45 40 26 2 305 261 218 218 209 204 198 202 206 223 204 197 215 231 220 210 205 205 197 189 184 203 247 274 296 281 200 222 199 188 193 203 209 230 236 216 222
31 33 37 38 26 25 62 105 146 147 140 143 157 179 199 221 233 175 195 238 256 207 187 190 169 171 185 192 219 154 144 161 180 198 210 187 183 196 203 220 254 273 262
32 32 31 47 52 56 96 121 120 117 125 147 172 176 185 201 192 210 205 211 215 212 138 116 130 151 165 174 180 174 191 178 180 210 223 218 193 197 205 226 225 228 230
34 30 30 42 31 72 87 111 111 101 121 154 180 194 199 200 197 193 183 176 167 150 128 127 125 133 135 133 164 187 199 188 195 207 208 212 212 204 197 198 215 217 214
40 43 45 46 57 77 91 54 50 64 33 27 45 23 3 221 216 249 212 180 182 172 155 155 163 175 170 173 187 198 212 199 204 213 215 207 211 219 215 206 204 195 209
39 52 42 42 75 88 98 81 44 41 50 45 43 31 20 346 310 256 235 127 136 147 160 175 181 197 213 197 199 210 216 223 228 218 227 223 221 224 221 208 208 207 216
52 67 71 10 59 99 146 168 135 89 68 55 49 41 27 2 147 148 122 120 131 199 212 193 187 187 214 226 229 240 235 217 231 240 245 248 248 243 236 226 217 220 227
107 85 265 331 308 287 252 261 328 40 79 70 52 41 36 49 80 99 114 121 106 69 97 136 154 191 215 222 215 225 255 263 257 261 257 253 253 252 244 235 226 227 229
191 160 139 81 325 283 254 278 55 78 89 120 118 75 54 59 76 96 125 133 141 154 173 201 216 233 247 255 253 244 241 240 246 254 265 271 265 259 250 243 242 235 232
176 125 240 173 171 168 227 71 86 105 128 118 102 114 125 134 141 78 75 106 175 178 179 208 232 248 256 254 249 250 254 249 248 249 255 262 268 264 259 249 249 253 244
182 166 195 201 124 51 14 87 112 124 109 93 90 75 41 106 113 64 62 63 349 285 244 240 286 279 276 271 264 263 263 262 261 259 256 253 253 258 265 269 271 263 250
190 183 186 189 162 140 86 122 127 130 130 105 94 97 357 58 76 95 90 57 4 288 311 312 285 253 254 286 297 290 284 280 272 267 264 258 250 249 253 254 251 251 230
178 180 189 182 171 142 138 129 115 106 115 117 129 118 93 88 82 73 86 100 228 15 20 326 319 341 338 312 293 272 266 269 279 277 260 255 242 237 241 250 262 259 238
161 159 187 184 165 160 141 121 101 100 114 130 127 118 119 108 96 78 63 43 42 22 13 7 352 350 351 346 316 296 283 273 266 268 272 266 260 243 237 240 245 255 259
156 157 163 154 153 152 143 128 121 131 129 107 92 92 92 84 75 68 46 10 28 25 29 36 23 14 17 20 4 350 337 312 272 266 276 275 274 263 239 240 226 226 228
160 154 150 168 161 152 148 152 148 145 134 118 109 97 99 95 80 63 43 37 31 37 38 37 30 25 15 3 352 346 350 350 319 270 277 295 301 290 265 251 238 225 222
Height
1490 1491 1492 1494 1494 1494 1495 1496 1496 1497 1496 1496 1496 1496 1495 1496 1497 1499 1501 1506 1512 1515 1518 1521 1525 1528 1531 1533 1535 1537 1539 1540 1541 1543 1543 1542 1544 1545 1545 1545 1546 1546 1545
1486 1488 1490 1491 1492 1492 1493 1493 1494 1495 1495 1496 1497 1496 1496 1496 1496 1498 1500 1505 1509 1512 1517 1519 1522 1525 1527 1530 1532 1533 1534 1535 1536 1538 1537 1538 1541 1542 1542 1543 1543 1543 1543
1483 1485 1487 1488 1489 1489 1490 1492 1492 1493 1494 1496 1497 1496 1496 1497 1497 1498 1500 1503 1507 1511 1514 1516 1519 1521 1524 1527 1528 1529 1529 1529 1530 1532 1532 1533 1536 1538 1538 1539 1540 1540 1540
1480 1482 1485 1486 1486 1487 1488 1489 1490 1491 1493 1495 1496 1496 1496 1497 1498 1498 1499 1501 1505 1509 1511 1514 1517 1518 1521 1523 1525 1525 1524 1524 1525 1527 1528 1527 1530 1531 1534 1535 1536 1537 1537
1476 1478 1481 1483 1484 1485 1486 1487 1488 1489 1490 1492 1493 1494 1495 1497 1498 1499 1500 1501 1504 1505 1507 1509 1511 1514 1517 1517 1518 1519 1518 1518 1519 1521 1523 1524 1524 1525 1528 1530 1532 1533 1534
1472 1474 1476 1478 1480 1481 1483 1484 1485 1486 1488 1489 1490 1492 1494 1495 1495 1497 1499 1499 1500 1502 1503 1504 1505 1507 1508 1510 1511 1511 1512 1513 1515 1516 1518 1519 1519 1520 1523 1526 1528 1529 1531
1474 1472 1472 1474 1475 1477 1478 1480 1482 1482 1483 1484 1486 1488 1490 1492 1493 1494 1495 1495 1496 1497 1498 1499 1499 1499 1502 1504 1505 1505 1506 1507 1510 1511 1512 1515 1517 1518 1518 1520 1522 1525 1527
1472 1468 1469 1470 1472 1473 1473 1475 1477 1478 1479 1480 1482 1484 1486 1489 1490 1491 1491 1493 1493 1493 1493 1495 1497 1498 1499 1500 1501 1501 1502 1503 1504 1505 1507 1509 1510 1512 1513 1516 1519 1522 1524
1464 1464 1465 1467 1467 1468 1468 1470 1471 1473 1474 1477 1479 1481 1482 1484 1486 1487 1488 1490 1490 1489 1490 1491 1492 1494 1495 1495 1496 1497 1499 1500 1499 1500 1501 1501 1502 1506 1508 1513 1515 1516 1518
1462 1462 1462 1463 1463 1464 1464 1465 1466 1468 1470 1472 1473 1475 1476 1478 1480 1482 1484 1486 1486 1486 1486 1487 1488 1490 1491 1492 1493 1494 1494 1495 1495 1495 1496 1496 1498 1501 1504 1508 1512 1513 1515
1462 1462 1461 1461 1460 1460 1460 1460 1461 1463 1465 1467 1467 1468 1470 1472 1474 1475 1478 1481 1482 1482 1483 1484 1484 1486 1488 1489 1490 1490 1491 1491 1492 1492 1492 1491 1493 1496 1499 1503 1508 1509 1512
1461 1461 1461 1460 1459 1459 1458 1458 1459 1461 1462 1463 1464 1466 1468 1469 1470 1470 1472 1476 1479 1480 1480 1480 1481 1483 1484 1486 1486 1487 1488 1489 1490 1490 1491 1489 1490 1493 1496 1499 1502 1503 1506
1463 1462 1461 1460 1459 1459 1459 1460 1461 1462 1464 1465 1465 1466 1466 1466 1467 1468 1470 1472 1474 1476 1476 1476 1478 1480 1481 1482 1483 1484 1485 1486 1488 1488 1488 1488 1489 1491 1493 1495 1496 1497 1499
1465 1464 1462 1461 1461 1459 1459 1461 1463 1464 1465 1466 1466 1465 1465 1465 1465 1466 1467 1469 1470 1472 1473 1474 1476 1478 1478 1479 1480 1482 1483 1483 1483 1483 1484 1485 1486 1487 1488 1490 1491 1492 1494
1467 1465 1464 1463 1462 1460 1460 1462 1464 1464 1464 1465 1464 1464 1463 1462 1462 1462 1465 1467 1468 1471 1472 1473 1474 1477 1478 1478 1479 1479 1479 1479 1480 1480 1480 1480 1481 1482 1483 1485 1486 1487 1488
1468 1467 1466 1466 1465 1463 1463 1463 1464 1464 1464 1463 1463 1462 1461 1459 1459 1460 1462 1465 1467 1468 1470 1471 1474 1476 1478 1478 1477 1477 1477 1477 1478 1477 1477 1477 1477 1478 1479 1480 1480 1481 1481
1468 1468 1467 1467 1467 1466 1465 1465 1465 1464 1464 1463 1462 1462 1460 1459 1458 1459 1461 1463 1466 1468 1470 1472 1473 1474 1474 1475 1475 1475 1474 1474 1474 1473 1473 1473 1473 1473 1473 1474 1474 1475 1475
1468 1468 1468 1467 1466 1466 1466 1466 1466 1465 1464 1463 1462 1461 1461 1460 1460 1460 1462 1464 1466 1468 1469 1470 1471 1472 1472 1472 1472 1471 1471 1471 1470 1470 1469 1469 1469 1469 1469 1468 1468 1468 1469
1469 1468 1467 1466 1465 1465 1466 1466 1465 1464 1463 1463 1462 1462 1462 1462 1463 1463 1464 1465 1467 1468 1469 1469 1469 1470 1470 1469 1468 1468 1468 1467 1467 1466 1466 1466 1465 1465 1464 1463 1463 1462 1462
1468 1467 1467 1467 1467 1467 1467 1466 1465 1464 1464 1465 1464 1463 1463 1464 1464 1465 1466 1466 1467 1468 1468 1468 1468 1467 1467 1466 1465 1464 1464 1464 1463 1462 1462 1462 1461 1461 1459 1458 1458 1457 1456
1467 1466 1466 1467 1468 1468 1468 1467 1466 1466 1467 1467 1467 1465 1465 1465 1466 1466 1466 1466 1467 1467 1467 1467 1466 1465 1464 1463 1463 1462 1461 1460 1459 1459 1458 1458 1457 1456 1455 1454 1453 1451 1450
1466 1466 1467 1467 1467 1468 1469 1469 1468 1468 1468 1469 1468 1467 1467 1467 1467 1466 1466 1467 1467 1467 1466 1466 1465 1464 1462 1460 1460 1459 1458 1458 1457 1455 1454 1454 1453 1452 1452 1451 1449 1448 1446
1464 1465 1465 1466 1467 1468 1468 1468 1469 1469 1469 1470 1469 1469 1469 1469 1468 1468 1468 1468 1467 1466 1465 1464 1463 1462 1461 1460 1458 1457 1456 1454 1452 1451 1450 1449 1449 1448 1448 1447 1446 1445 1444
1463 1464 1464 1466 1466 1467 1468 1469 1468 1468 1469 1470 1471 1470 1470 1470 1470 1469 1468 1468 1467 1466 1465 1464 1463 1462 1461 1459 1457 1456 1454 1451 1449 1447 1446 1445 1445 1445 1444 1443 1442 1440 1438
1463 1464 1464 1465 1466 1468 1468 1469 1469 1469 1470 1470 1471 1471 1470 1470 1470 1469 1468 1467 1467 1466 1465 1464 1463 1462 1460 1458 1456 1454 1452 1450 1448 1446 1443 1442 1441 1441 1440 1439 1437 1435 1434
1462 1463 1464 1465 1467 1468 1469 1469 1470 1470 1471 1471 1471 1471 1471 1471 1471 1470 1469 1467 1466 1465 1464 1463 1461 1460 1458 1456 1454 1452 1450 1449 1447 1445 1442 1440 1439 1438 1437 1436 1434 1432 1431